Time,TemperatureF,DewpointF,PressureIn,WindDirection,WindDirectionDegrees,WindSpeedMPH,WindSpeedGustMPH,Humidity,HourlyPrecipIn,Conditions,Clouds,dailyrainin,SoftwareType,DateUTC
2013-07-11 00:00:00,61.0,58.7,30.12,NNE,22,0.0,0.0,92,0.00,,,-99.99,Weather View 32 v60,2013-07-11 05:00:00,
2013-07-11 00:30:00,61.0,59.0,30.13,NE,45,0.0,0.0,93,0.00,,,-99.99,Weather View 32 v60,2013-07-11 05:30:00,
2013-07-11 01:00:00,61.0,59.3,30.13,NNW,338,0.0,0.0,94,0.00,,,-99.99,Weather View 32 v60,2013-07-11 06:00:00,
2013-07-11 01:30:00,60.0,58.6,30.14,North,0,0.0,0.0,95,0.00,,,-99.99,Weather View 32 v60,2013-07-11 06:30:00,
2013-07-11 02:00:00,59.0,57.6,30.15,NW,315,0.0,0.0,95,0.00,,,-99.99,Weather View 32 v60,2013-07-11 07:00:00,
2013-07-11 02:30:00,58.0,56.6,30.15,North,0,0.0,0.0,95,0.00,,,-99.99,Weather View 32 v60,2013-07-11 07:30:00,
2013-07-11 03:00:00,57.0,55.9,30.16,NE,45,0.0,0.0,96,0.00,,,-99.99,Weather View 32 v60,2013-07-11 08:00:00,
2013-07-11 03:30:00,58.0,57.2,30.16,NNE,22,0.0,0.0,97,0.00,,,-99.99,Weather View 32 v60,2013-07-11 08:30:00,
2013-07-11 04:00:00,58.0,57.2,30.17,NW,315,0.0,0.0,97,0.00,,,-99.99,Weather View 32 v60,2013-07-11 09:00:00,
2013-07-11 04:30:00,57.0,56.4,30.18,North,0,0.0,0.0,98,0.00,,,-99.99,Weather View 32 v60,2013-07-11 09:30:00,
2013-07-11 05:00:00,56.0,55.4,30.19,NNW,338,0.0,0.0,98,0.00,,,-99.99,Weather View 32 v60,2013-07-11 10:00:00,
2013-07-11 05:30:00,58.0,57.7,30.19,WNW,292,0.0,0.0,99,0.00,,,-99.99,Weather View 32 v60,2013-07-11 10:30:00,
2013-07-11 06:00:00,59.0,58.7,30.20,North,0,0.0,0.0,99,0.00,,,-99.99,Weather View 32 v60,2013-07-11 11:00:00,
2013-07-11 06:30:00,59.0,58.7,30.23,NW,315,0.0,0.0,99,0.00,,,-99.99,Weather View 32 v60,2013-07-11 11:30:00,
2013-07-11 07:00:00,61.0,61.0,30.25,NNE,22,0.0,1.0,100,0.00,,,-99.99,Weather View 32 v60,2013-07-11 12:00:00,
2013-07-11 07:30:00,64.0,63.1,30.25,West,270,0.0,1.0,97,0.00,,,-99.99,Weather View 32 v60,2013-07-11 12:30:00,
2013-07-11 08:00:00,66.0,63.9,30.25,SW,225,0.0,0.0,93,0.00,,,-99.99,Weather View 32 v60,2013-07-11 13:00:00,
2013-07-11 08:30:00,68.0,62.3,30.25,NW,315,0.0,0.0,82,0.00,,,-99.99,Weather View 32 v60,2013-07-11 13:30:00,
2013-07-11 09:30:00,74.0,60.6,30.25,WNW,292,0.0,2.0,63,0.00,,,-99.99,Weather View 32 v60,2013-07-11 14:30:00,
2013-07-11 10:00:00,75.0,60.1,30.25,West,270,0.0,2.0,60,0.00,,,-99.99,Weather View 32 v60,2013-07-11 15:00:00,
2013-07-11 10:30:00,78.0,63.4,30.24,WNW,292,0.0,1.0,61,0.00,,,-99.99,Weather View 32 v60,2013-07-11 15:30:00,
2013-07-11 11:30:00,84.0,60.3,30.25,NE,45,0.0,0.0,45,0.00,,,-99.99,Weather View 32 v60,2013-07-11 16:30:00,
2013-07-11 12:00:00,83.0,56.8,30.26,West,270,0.0,1.0,41,0.00,,,-99.99,Weather View 32 v60,2013-07-11 17:00:00,
2013-07-11 13:00:00,81.0,57.6,30.25,East,90,0.0,3.0,45,0.00,,,-99.99,Weather View 32 v60,2013-07-11 18:00:00,
2013-07-11 13:30:00,81.0,57.0,30.24,West,270,0.0,3.0,44,0.00,,,-99.99,Weather View 32 v60,2013-07-11 18:30:00,
2013-07-11 14:00:00,82.0,57.9,30.22,NNE,22,0.0,3.0,44,0.00,,,-99.99,Weather View 32 v60,2013-07-11 19:00:00,
2013-07-11 14:30:00,85.0,59.9,30.19,East,90,0.0,1.0,43,0.00,,,-99.99,Weather View 32 v60,2013-07-11 19:30:00,
2013-07-11 15:00:00,85.0,58.6,30.18,NE,45,0.0,1.0,41,0.00,,,-99.99,Weather View 32 v60,2013-07-11 20:00:00,
2013-07-11 15:30:00,82.0,59.1,30.17,South,180,0.0,4.0,46,0.00,,,-99.99,Weather View 32 v60,2013-07-11 20:30:00,
2013-07-11 16:00:00,81.0,58.8,30.16,South,180,0.0,4.0,47,0.00,,,-99.99,Weather View 32 v60,2013-07-11 21:00:00,
2013-07-11 16:30:00,81.0,59.4,30.16,SSW,202,0.0,3.0,48,0.00,,,-99.99,Weather View 32 v60,2013-07-11 21:30:00,
2013-07-11 17:00:00,81.0,58.8,30.16,West,270,0.0,2.0,47,0.00,,,-99.99,Weather View 32 v60,2013-07-11 22:00:00,
2013-07-11 18:00:00,80.0,59.6,30.16,WSW,248,0.0,3.0,50,0.00,,,-99.99,Weather View 32 v60,2013-07-11 23:00:00,
2013-07-11 18:30:00,79.0,60.3,30.15,SW,225,0.0,2.0,53,0.00,,,-99.99,Weather View 32 v60,2013-07-11 23:30:00,
2013-07-11 19:00:00,78.0,61.0,30.15,SSW,202,0.0,4.0,56,0.00,,,-99.99,Weather View 32 v60,2013-07-12 00:00:00,
2013-07-11 19:30:00,77.0,61.5,30.14,WSW,248,0.0,4.0,59,0.00,,,-99.99,Weather View 32 v60,2013-07-12 00:30:00,
2013-07-11 20:00:00,75.0,61.1,30.13,SW,225,0.0,3.0,62,0.00,,,-99.99,Weather View 32 v60,2013-07-12 01:00:00,
2013-07-11 20:30:00,73.0,60.9,30.13,WSW,248,0.0,3.0,66,0.00,,,-99.99,Weather View 32 v60,2013-07-12 01:30:00,
2013-07-11 21:00:00,71.0,61.1,30.14,SW,225,0.0,3.0,71,0.00,,,-99.99,Weather View 32 v60,2013-07-12 02:00:00,
2013-07-11 21:30:00,69.0,60.3,30.14,SSW,202,0.0,1.0,74,0.00,,,-99.99,Weather View 32 v60,2013-07-12 02:30:00,
2013-07-11 22:00:00,68.0,60.5,30.15,SW,225,0.0,1.0,77,0.00,,,-99.99,Weather View 32 v60,2013-07-12 03:00:00,
2013-07-11 22:30:00,67.0,60.6,30.14,South,180,0.0,1.0,80,0.00,,,-99.99,Weather View 32 v60,2013-07-12 03:30:00,
2013-07-11 23:00:00,66.0,60.3,30.15,SSW,202,0.0,0.0,82,0.00,,,-99.99,Weather View 32 v60,2013-07-12 04:00:00,
2013-07-11 23:30:00,65.0,59.7,30.15,West,270,0.0,0.0,83,0.00,,,-99.99,Weather View 32 v60,2013-07-12 04:30:00,